NOAA-19
1 33591U 09005A 10195.87153695 -.00000042 00000-0 47670-6 0 06045
2 33591 098.7887 137.4057 0013487 207.9398 152.1023 14.11067319073814
HUBBLE
1 20580U 90037B 10196.04063386 .00000342 00000-0 13348-4 0 6035
2 20580 028.4692 058.0248 0003494 140.7115 219.3727 15.00997412908943
ISS
1 25544U 98067A 10197.00956019 .00011172 00000-0 86359-4 0 5205
2 25544 051.6470 083.0369 0010240 083.4786 121.0410 15.72435387668001
CO-58
1 28895U 05043F 10195.67099861 .00000239 00000-0 59276-4 0 06316
2 28895 098.0120 079.2340 0017638 195.5242 164.5406 14.59910019250992
FALCON
1 30776U 07006E 10195.57015822 .00000318 00000-0 25791-4 0 8700
2 30776 035.4338 238.0411 0001050 016.2630 343.8120 15.03712909184184
MAST
1 31126U 07012K 10196.58241230 .00000066 00000-0 24990-4 0 9131
2 31126 097.9355 237.1246 0095146 137.3247 223.5410 14.53601830172187
CAPE1
1 31130U 07012P 10196.79931752 -.00000027 00000-0 42484-5 0 9344
2 31130 097.9357 234.6823 0103658 144.7714 216.0342 14.52197759171815
COMPASS
1 32787U 08021E 10196.73058185 -.00000057 00000-0 -49339-6 0 7246
2 32787 097.8935 261.0940 0015492 188.6737 171.4225 14.81906531119723
AAUSAT2
1 32788U 08021F 10195.17801300 -.00000000 00000-0 66630-5 0 7169
2 32788 097.8929 259.6953 0014652 194.4242 165.6503 14.82050835119505
DO-64
1 32789U 08021G 10195.72426691 .00000145 00000-0 24871-4 0 7346
2 32789 097.9003 260.7402 0015327 190.7514 169.3370 14.82206247119584
CO-66
1 32791U 08021J 10196.68917615 .00000512 00000-0 71606-4 0 7173
2 32791 097.8936 261.0659 0015632 187.4304 172.6691 14.81689840119674
RS-30
1 32953U 08025A 10196.54206965 .00000010 00000-0 00000 0 0 8697
2 32953 082.5000 012.0420 0019676 042.6781 317.5825 12.43006428 97260
TACSAT-3
1 35001U 09028A 10195.96097267 .00003281 00000-0 80087-4 0 03366
2 35001 040.4557 047.2480 0021169 217.1810 142.7540 15.42006528064927
PHARMSAT
1 35002U 09028B 10195.97019965 .00002738 00000-0 66526-4 0 03174
2 35002 040.4694 045.0942 0024338 220.0680 139.8340 15.42510805064943
HAWKSAT1
1 35003U 09028C 10195.95083205 .00006425 00000-0 13301-3 0 03406
2 35003 040.4604 039.1841 0022468 236.7994 123.0667 15.45813011065015
CP6
1 35004U 09028D 10195.93217990 .00007694 00000-0 15353-3 0 03447
2 35004 040.4614 038.1521 0021300 240.6310 119.2376 15.46718961065014
AEROCUB3
1 35005U 09028E 10196.85016627 .00025915 00000-0 40597-3 0 3796
2 35005 040.4671 028.6698 0019294 268.1959 091.6647 15.52864817 65204
CASTOR
1 35694U 09038F 10196.71559655 .00129543 19421-4 15002-3 0 5595
2 35694 051.6341 046.7186 0002283 273.3938 086.7006 16.08560449 55641
METEOR-M
1 35865U 09049A 10196.70515565 .00000176 00000-0 10000-3 0 4746
2 35865 098.7563 250.2981 0002014 304.0539 056.0403 14.21830899 42778
RS-38
1 35869U 09049E 10196.74393000 .00000177 00000-0 10000-3 0 4833
2 35869 098.7549 250.3710 0003907 289.3352 070.7376 14.21985067 42788
